{"data":{"norad_id":62826,"epoch":"2026-09-21T21:22:30.470880Z","epoch_age_seconds":48037,"freshness":"FRESH","line1":"1 62826U 25018W   26264.89063045  .00120925  00000+0  15712-2 0  9991","line2":"2 62826  53.1466 102.7834 0002841 148.5401 211.5782 15.57935313 93420","mean_motion":15.57935313,"eccentricity":0.0002841,"inclination_deg":53.1466,"raan_deg":102.7834,"arg_perigee_deg":148.5401,"mean_anomaly_deg":211.5782,"bstar":0.0015712,"rev_number":9342,"period_min":92.430025045591,"perigee_km":391.7095764863,"apogee_km":395.5572964483,"semimajor_km":6771.7704364673,"source":"CELESTRAK","updated_at":"2026-09-22T09:00:49.670447Z"}}